Time,TemperatureF,DewpointF,PressureIn,WindDirection,WindDirectionDegrees,WindSpeedMPH,WindSpeedGustMPH,Humidity,HourlyPrecipIn,Conditions,Clouds,dailyrainin,SoftwareType,DateUTC
2013-07-11 00:10:00,69.0,41.0,-100.00,WNW,295,8.0,20.0,36,-99.99,,,-99.99,,2013-07-11 07:10:00,
2013-07-11 02:02:00,67.0,43.0,-100.00,North,360,3.0,9.0,41,-99.99,,,-99.99,,2013-07-11 09:02:00,
2013-07-11 02:10:00,67.0,45.0,-100.00,North,10,3.0,10.0,45,-99.99,,,-99.99,,2013-07-11 09:10:00,
2013-07-11 02:12:00,67.0,43.0,-100.00,North,360,3.0,9.0,41,-99.99,,,-99.99,,2013-07-11 09:12:00,
2013-07-11 03:01:00,67.0,45.0,-100.00,North,10,3.0,10.0,45,-99.99,,,-99.99,,2013-07-11 10:01:00,
2013-07-11 04:12:00,64.0,44.0,-100.00,WSW,255,5.0,8.0,48,-99.99,,,-99.99,,2013-07-11 11:12:00,
2013-07-11 05:10:00,58.0,43.0,-100.00,ENE,60,1.0,3.0,57,-99.99,,,-99.99,,2013-07-11 12:10:00,
2013-07-11 07:10:00,63.0,46.0,-100.00,WNW,295,5.0,8.0,53,-99.99,,,-99.99,,2013-07-11 14:10:00,
2013-07-11 07:13:00,59.0,44.0,-100.00,NW,315,2.0,9.0,57,-99.99,,,-99.99,,2013-07-11 14:13:00,
2013-07-11 09:04:00,66.0,46.0,-100.00,North,360,3.0,9.0,48,-99.99,,,-99.99,,2013-07-11 16:04:00,
2013-07-11 09:13:00,66.0,46.0,-100.00,North,360,3.0,9.0,48,-99.99,,,-99.99,,2013-07-11 16:13:00,
2013-07-11 09:20:00,69.0,45.0,-100.00,NE,35,3.0,12.0,42,-99.99,,,-99.99,,2013-07-11 16:20:00,
2013-07-11 10:10:00,73.0,44.0,-100.00,North,360,5.0,12.0,35,-99.99,,,-99.99,,2013-07-11 17:10:00,
2013-07-11 10:13:00,69.0,45.0,-100.00,NE,35,3.0,12.0,42,-99.99,,,-99.99,,2013-07-11 17:13:00,
2013-07-11 11:03:00,73.0,44.0,-100.00,North,360,5.0,12.0,35,-99.99,,,-99.99,,2013-07-11 18:03:00,
2013-07-11 12:12:00,77.0,45.0,-100.00,NNW,340,5.0,13.0,32,-99.99,,,-99.99,,2013-07-11 19:12:00,
2013-07-11 13:03:00,78.0,44.0,-100.00,North,5,3.0,13.0,29,-99.99,,,-99.99,,2013-07-11 20:03:00,
2013-07-11 20:10:00,71.0,38.0,-100.00,North,5,6.0,13.0,29,-99.99,,,-99.99,,2013-07-12 03:10:00,
2013-07-11 20:13:00,75.0,41.0,-100.00,North,360,3.0,12.0,29,-99.99,,,-99.99,,2013-07-12 03:13:00,
2013-07-11 22:11:00,67.0,36.0,-100.00,North,360,3.0,12.0,31,-99.99,,,-99.99,,2013-07-12 05:11:00,
2013-07-11 22:20:00,65.0,36.0,-100.00,West,280,5.0,9.0,34,-99.99,,,-99.99,,2013-07-12 05:20:00,
2013-07-11 23:10:00,64.0,38.0,-100.00,NW,305,3.0,10.0,38,-99.99,,,-99.99,,2013-07-12 06:10:00,
2013-07-11 23:11:00,65.0,36.0,-100.00,West,280,5.0,9.0,34,-99.99,,,-99.99,,2013-07-12 06:11:00,